User: anonymous   Login
Location: Unspecified
(0.0000°N, 0.0000°E)
Time: 06:52:52
(UTC+00:00)
Language:

STARLINK-30231 - Orbit

View from above orbital plane
View from above orbital plane
View from above satellite
View from above satellite

Ground track
Ground track

The orbit is defined by the following mean orbital elements,

1 57514U          26145.63405052 +.00000000 +00000-0 +80674-4 0 00007
2 57514  43.0031 301.4516 0001575 261.7356  98.3317 15.27582293    08
Epoch (UTC): 25 May 2026 15:13:01
Eccentricity: 0.0001575
inclination: 43.0031°
perigee height: 482 km
apogee height: 484 km
right ascension of ascending node: 301.4516°
argument of perigee: 261.7356°
revolutions per day: 15.27582293
mean anomaly at epoch: 98.3317°

The dashed part of the orbit path shows where the satellite is in the earth's shadow,  

DLR